Weather past 2 weeks in Saipan, Northern Mariana Islands

Now
86 °F

Passing clouds.


Feels Like: 96 °F
Forecast: 77 / 83 °F
Wind: 13 mph from East

Location: Saipan International Airport

Current Time: May 27, 2015 at 1:58:03 PM

Latest Report: May 27, 2015 at 12:54 PM


Visibility: 10 mi

Pressure: 29.91 "Hg

Humidity: 72%

Dew point: 76 °F

Location of SaipanLocation

Historic Weather in Saipan — Graph

°F

Saipan temperature yesterday

Maximum temperature yesterday: 85 °F (at 10:54 AM)
Minimum temperature yesterday: 77 °F (at 1:54 AM)
Average temperature yesterday: 81 °F

Past Weeks' High & Low Weather Summary

 TemperatureHumidityPressure
High88 °F (May 13, 11:18 AM)100% (May 15, 5:34 AM)30.07 "Hg (May 15, 5:34 AM)
Low73 °F (May 15, 5:34 AM)62% (May 13, 11:18 AM)29.45 "Hg (May 15, 5:44 PM)
Average81 °F84%29.88 "Hg
* Reported May 12 11:54 AM — May 27 11:54 AM, Saipan, Weather by CustomWeather, © 2015

Note: Actual official high and low records may vary slightly from our data, if they occured in-between our weather recording intervals... More about our weather records

Advertising

Saipan weather history for previous 24 hours

 ConditionsComfort  
Time TempWeatherWind HumidityBarometerVisibility
11:54 AM
Wed, May 27
86 °FScattered clouds.12 mph75%29.93 "Hg10 mi
10:54 AM86 °FScattered clouds.14 mph79%29.94 "Hg10 mi
9:54 AM85 °FScattered clouds.16 mph76%29.95 "Hg10 mi
8:54 AM84 °FScattered clouds.12 mph80%29.95 "Hg10 mi
7:54 AM83 °FScattered clouds.14 mph82%29.95 "Hg10 mi
6:54 AM81 °FScattered clouds.10 mph88%29.94 "Hg10 mi
5:54 AM78 °FScattered clouds.6 mph93%29.92 "Hg10 mi
4:54 AM78 °FPartly cloudy.5 mph96%29.91 "Hg10 mi
3:54 AM78 °FPartly cloudy.9 mph96%29.91 "Hg10 mi
3:01 AM79 °FPartly cloudy.9 mph94%29.85 "Hg10 mi
1:54 AM79 °FPassing clouds.6 mph90%29.94 "Hg10 mi
12:54 AM79 °FPartly cloudy.9 mph90%29.95 "Hg10 mi
12:41 AM79 °FMostly cloudy.5 mph89%29.90 "Hg10 mi
12:32 AM79 °FPartly cloudy.6 mph94%29.90 "Hg10 mi
11:54 PM
Tue, May 26
77 °FLight rain. Passing clouds.8 mph94%29.97 "Hg9 mi
10:54 PM78 °FPassing clouds.6 mph93%29.99 "Hg10 mi
9:54 PM77 °FPassing clouds.7 mph90%29.98 "Hg10 mi
8:54 PM80 °FPassing clouds.8 mph85%29.98 "Hg10 mi
7:54 PM80 °FPassing clouds.7 mph87%29.97 "Hg10 mi
6:54 PM78 °FMostly cloudy.5 mph90%29.95 "Hg10 mi
5:54 PM80 °FBroken clouds.15 mph85%29.95 "Hg10 mi
4:54 PM84 °FScattered clouds.12 mph74%29.93 "Hg10 mi
3:54 PM85 °FPartly sunny.10 mph75%29.93 "Hg10 mi
2:54 PM85 °FScattered clouds.8 mph70%29.94 "Hg10 mi
1:54 PM85 °FScattered clouds.12 mph70%29.96 "Hg10 mi
Weather by CustomWeather, © 2015

See weather overviewHow to use our weather pages